Sisseton, SD

4:49 AM CDT on May 25, 2018 (GMT -0500)
Sisseton

Weather History for K8D3 - November, 2013

Change the Weather History Date:

Sunday, November 17, 2013

  Actual Average Record
Temperature  
Mean Temperature 35 °F 30 °F  
Max Temperature 40 °F 39 °F 74 °F (1953)
Min Temperature 30 °F 21 °F -5 °F (1959)
Degree Days  
Heating Degree Days 30 35  
Month to date heating degree days 499 518  
Since 1 July heating degree days 1277 1345  
Cooling Degree Days 0 0  
Month to date cooling degree days 0 0  
Year to date cooling degree days 625 527  
Moisture  
Dew Point 31 °F    
Average Humidity 86    
Maximum Humidity 100    
Minimum Humidity 72    
Precipitation  
Precipitation 0.00 in 0.02 in 0.64 in (2015)
Month to date precipitation 0.07 0.44  
Year to date precipitation 27.43 21.80  
Snow  
Snow 0.00 in - - ()
Month to date snowfall 0.0  
Since 1 July snowfall 1.0  
Snow Depth 0.00 in    
Sea Level Pressure  
Sea Level Pressure 29.65 in    
Wind  
Wind Speed 15 mph (NNW)    
Max Wind Speed 25 mph    
Max Gust Speed 32 mph    
T = Trace of Precipitation, MM = Missing Value Source: NWS Daily Summary

Daily Weather History Graph

Daily Weather History Graph

Search for Another Location

Airport or City:

Astronomy

Nov. 17, 2013 Rise Set
Actual Time 7:30 AM CST 4:54 PM CST
Civil Twilight 6:58 AM CST 5:27 PM CST
Nautical Twilight 6:21 AM CST 6:03 PM CST
Astronomical Twilight 5:46 AM CST 6:38 PM CST
Moon 5:12 PM CST (11/17) 7:25 AM CST (11/17)
Length of Visible Light 10h 29m
Length of Day
9h 24m
Full, 100% of the Moon is Illuminated
Nov 17
Full
Nov 25
Last Quarter
Dec 2
New
Dec 9
First Quarter
Dec 17
Full

Hourly Weather History & Observations

Time (CST) Temp. Windchill Dew Point Humidity Pressure Visibility Wind Dir Wind Speed Gust Speed Precip Events Conditions
12:56 AM 39.0 °F 31.4 °F 37.9 °F 96% 29.36 in - NNW 12.7 mph - N/A   Unknown
1:56 AM 36.0 °F 29.0 °F 35.1 °F 97% 29.38 in - NW 9.2 mph - N/A   Unknown
2:56 AM 37.9 °F 30.9 °F 36.0 °F 93% 29.39 in - NNW 10.4 mph - N/A   Unknown
3:56 AM 37.9 °F 30.5 °F 36.0 °F 93% 29.40 in - NNW 11.5 mph - N/A   Unknown
4:56 AM 37.0 °F 31.6 °F 36.0 °F 96% 29.41 in - North 6.9 mph - N/A   Unknown
5:56 AM 36.0 °F 29.6 °F 35.1 °F 97% 29.43 in - NNW 8.1 mph - N/A   Unknown
7:56 AM 36.0 °F 28.5 °F 34.0 °F 93% 29.48 in - NNW 10.4 mph - N/A   Unknown
8:56 AM 39.0 °F 31.4 °F 36.0 °F 89% 29.50 in - NNW 12.7 mph - N/A   Unknown
9:56 AM 37.9 °F 28.2 °F 36.0 °F 93% 29.53 in - NNW 18.4 mph - N/A   Unknown
10:56 AM 37.0 °F 28.1 °F 34.0 °F 89% 29.57 in - NNW 15.0 mph - N/A   Unknown
11:56 AM 37.0 °F 27.7 °F 35.1 °F 93% 29.59 in - NNW 16.1 mph - N/A   Unknown
12:56 PM 37.0 °F 27.4 °F 33.1 °F 86% 29.62 in - NNW 17.3 mph 27.6 mph N/A   Unknown
1:56 PM 36.0 °F 25.0 °F 32.0 °F 86% 29.66 in - NNW 20.7 mph - N/A   Unknown
2:56 PM 36.0 °F 26.7 °F 30.9 °F 82% 29.70 in - NNW 15.0 mph 25.3 mph N/A   Unknown
3:56 PM 35.1 °F 23.5 °F 28.9 °F 78% 29.74 in - North 21.9 mph 27.6 mph N/A   Unknown
4:56 PM 33.1 °F 21.9 °F 28.0 °F 82% 29.80 in - NNW 18.4 mph 25.3 mph N/A   Unknown
5:56 PM 32.0 °F 20.1 °F 27.0 °F 82% 29.86 in - NNW 19.6 mph - N/A   Unknown
6:56 PM 30.9 °F 18.4 °F 26.1 °F 82% 29.87 in - NNW 20.7 mph 26.5 mph N/A   Unknown
7:56 PM 30.9 °F 21.7 °F 25.0 °F 79% 29.90 in - NNW 11.5 mph - N/A   Unknown
8:56 PM 30.9 °F 18.7 °F 25.0 °F 79% 29.93 in - NNW 19.6 mph 25.3 mph N/A   Unknown
9:56 PM 30.9 °F 19.1 °F 24.1 °F 76% 29.95 in - NNW 18.4 mph 27.6 mph N/A   Unknown
10:56 PM 30.0 °F 17.5 °F 23.0 °F 75% 29.97 in - North 19.6 mph 24.2 mph N/A   Unknown
11:56 PM 30.0 °F 20.5 °F 24.1 °F 79% 30.00 in - NNW 11.5 mph - N/A   Unknown